Location: Arleux
(50.3632°N, 2.8721°E)
Time: 03:14:40
(UTC+00:00)

SMAP - Pass Details

Date: 15 December 2019
Orbit: 681 x 684 km, 98.1° (Epoch: 22 January)

Event Time Altitude Azimuth Distance (km) Brightness Sun altitude
Rises 05:53:03 0° 18° (NNE) 3,059 6.4 -16.2°
Reaches altitude 10° 05:55:22 10° 23° (NNE) 2,138 5.7 -15.9°
Maximum altitude 05:59:56 51° 100° (E) 858 4.0 -15.2°
Drops below altitude 10° 06:04:27 10° 176° (S) 2,120 5.9 -14.5°
Sets 06:06:44 0° 182° (S) 3,030 6.6 -14.2°
